TimeCDT,TemperatureF,Dew PointF,Humidity,Sea Level PressureIn,VisibilityMPH,Wind Direction,Wind SpeedMPH,Gust SpeedMPH,PrecipitationIn,Events,Conditions,WindDirDegrees,DateUTC
12:55 AM,48.9,30.9,50,30.29,10.0,North,15.0,24.2,N/A,,Mostly Cloudy,10,2012-10-12 05:55:00
1:55 AM,46.9,30.9,54,30.31,10.0,NNE,11.5,-,N/A,,Mostly Cloudy,20,2012-10-12 06:55:00
2:55 AM,46.9,30.9,54,30.32,10.0,NNE,16.1,23.0,N/A,,Overcast,30,2012-10-12 07:55:00
3:55 AM,46.0,30.0,54,30.31,10.0,NNE,12.7,-,N/A,,Mostly Cloudy,30,2012-10-12 08:55:00
4:55 AM,44.1,30.0,58,30.32,10.0,NE,8.1,-,N/A,,Clear,40,2012-10-12 09:55:00
5:55 AM,43.0,28.9,58,30.33,10.0,ENE,5.8,-,N/A,,Partly Cloudy,60,2012-10-12 10:55:00
6:55 AM,39.0,28.9,67,30.38,10.0,NE,4.6,-,N/A,,Clear,50,2012-10-12 11:55:00
7:55 AM,42.1,30.0,62,30.38,10.0,NE,10.4,-,N/A,,Partly Cloudy,40,2012-10-12 12:55:00
8:55 AM,45.0,30.0,56,30.40,10.0,ENE,12.7,17.3,N/A,,Overcast,60,2012-10-12 13:55:00
9:55 AM,46.9,28.0,48,30.40,10.0,ENE,13.8,19.6,N/A,,Overcast,70,2012-10-12 14:55:00
10:55 AM,50.0,28.4,43,30.38,10.0,East,15.0,20.7,N/A,,Overcast,90,2012-10-12 15:55:00
11:55 AM,53.6,30.2,41,30.38,10.0,East,15.0,21.9,N/A,,Clear,100,2012-10-12 16:55:00
12:55 PM,55.0,33.1,43,30.37,10.0,ESE,13.8,20.7,N/A,,Partly Cloudy,110,2012-10-12 17:55:00
1:55 PM,57.0,35.1,44,30.34,10.0,ESE,11.5,19.6,N/A,,Partly Cloudy,110,2012-10-12 18:55:00
2:55 PM,57.9,37.0,46,30.31,10.0,ESE,12.7,-,N/A,,Clear,120,2012-10-12 19:55:00
3:55 PM,59.0,39.0,48,30.28,10.0,ESE,11.5,-,N/A,,Clear,110,2012-10-12 20:55:00
4:55 PM,57.2,39.2,51,30.24,10.0,ESE,10.4,-,N/A,,Overcast,110,2012-10-12 21:55:00
5:37 PM,57.2,39.2,51,30.23,10.0,SE,12.7,-,N/A,,Overcast,130,2012-10-12 22:37:00
5:55 PM,57.0,39.9,53,30.24,10.0,ESE,10.4,-,N/A,,Overcast,120,2012-10-12 22:55:00
6:55 PM,57.0,39.9,53,30.22,10.0,ESE,10.4,-,N/A,,Overcast,120,2012-10-12 23:55:00
7:55 PM,57.0,41.0,55,30.22,10.0,ESE,6.9,-,N/A,,Overcast,120,2012-10-13 00:55:00
8:18 PM,57.2,41.0,55,30.20,10.0,SE,10.4,-,N/A,,Overcast,130,2012-10-13 01:18:00
8:50 PM,55.4,42.8,63,30.20,10.0,SE,6.9,-,N/A,,Overcast,140,2012-10-13 01:50:00
8:55 PM,55.4,42.8,63,30.20,10.0,SE,9.2,-,N/A,,Overcast,140,2012-10-13 01:55:00
9:55 PM,55.0,43.0,64,30.19,10.0,SE,6.9,-,N/A,,Overcast,130,2012-10-13 02:55:00
10:55 PM,55.9,44.1,64,30.20,10.0,SSE,12.7,-,N/A,,Overcast,150,2012-10-13 03:55:00
11:55 PM,55.9,45.0,67,30.15,10.0,SE,13.8,-,N/A,,Overcast,140,2012-10-13 04:55:00